Eau Claire, WI

6:28 PM CST on February 24, 2018 (GMT -0600)
Chippewa Valley Regional

Weather History for KEAU - May, 2013

Change the Weather History Date:

Thursday, May 30, 2013

  Actual Average Record
Temperature  
Mean Temperature 70 °F 62 °F  
Max Temperature 77 °F 74 °F 96 °F (1939)
Min Temperature 63 °F 50 °F 34 °F (1966)
Degree Days  
Heating Degree Days 0 5  
Month to date heating degree days 308 252  
Since 1 July heating degree days 8237 7892  
Cooling Degree Days 5 2  
Month to date cooling degree days 25 26  
Year to date cooling degree days 28 30  
Growing Degree Days 20 (Base 50)    
Moisture  
Dew Point 64 °F    
Average Humidity 77    
Maximum Humidity 93    
Minimum Humidity 60    
Precipitation  
Precipitation 0.25 in 0.12 in 2.08 in (1921)
Month to date precipitation 8.32 3.34  
Year to date precipitation 19.09 9.52  
Snow  
Snow 0.00 in 0.00 in 0.00 in ()
Month to date snowfall 9.3 0.2  
Since 1 July snowfall 84.3 47.0  
Snow Depth 0.00 in    
Sea Level Pressure  
Sea Level Pressure 29.65 in    
Wind  
Wind Speed 12 mph (SSE)    
Max Wind Speed 24 mph    
Max Gust Speed 33 mph    
Visibility 10 miles    
Events Rain    
T = Trace of Precipitation, MM = Missing Value Source: NWS Daily Summary

Daily Weather History Graph

Daily Weather History Graph

Search for Another Location

Airport or City:

Trip Planner

Search our weather history database for the weather conditions in past years. The results will help you decide how hot, cold, wet, or windy it might be!

Date:

Astronomy

May. 30, 2013 Rise Set
Actual Time 5:23 AM CDT 8:43 PM CDT
Civil Twilight 4:48 AM CDT 9:19 PM CDT
Nautical Twilight 4:01 AM CDT 10:06 PM CDT
Astronomical Twilight 3:02 AM CDT 11:05 PM CDT
Moon 12:35 AM CDT (5/30) 11:43 AM CDT (5/30)
Length of Visible Light 16h 31m
Length of Day
15h 19m
Waning Gibbous, 62% of the Moon is Illuminated
May 30
Waning Gibbous
May 31
Last Quarter
Jun 8
New
Jun 16
First Quarter
Jun 23
Full

Hourly Weather History & Observations

Time (CDT) Temp. Dew Point Humidity Pressure Visibility Wind Dir Wind Speed Gust Speed Precip Events Conditions
12:56 AM 64.0 °F 62.1 °F 93% 29.75 in 9.0 mi South 5.8 mph - 0.05 in Rain Light Rain
1:56 AM 64.0 °F 62.1 °F 93% 29.73 in 10.0 mi South 8.1 mph - 0.07 in   Mostly Cloudy
2:56 AM 64.0 °F 62.1 °F 93% 29.72 in 10.0 mi SSE 8.1 mph - 0.00 in   Mostly Cloudy
3:56 AM 64.0 °F 62.1 °F 93% 29.69 in 10.0 mi SSE 9.2 mph - 0.02 in   Clear
4:56 AM 64.9 °F 63.0 °F 93% 29.68 in 10.0 mi SSE 9.2 mph - N/A   Mostly Cloudy
5:56 AM 66.0 °F 63.0 °F 90% 29.67 in 10.0 mi SE 9.2 mph - N/A   Partly Cloudy
6:56 AM 66.0 °F 63.0 °F 90% 29.68 in 10.0 mi SSE 10.4 mph - N/A   Clear
7:56 AM 69.1 °F 64.0 °F 84% 29.67 in 10.0 mi SSE 12.7 mph 20.7 mph N/A   Clear
8:56 AM 72.0 °F 64.9 °F 78% 29.68 in 10.0 mi South 17.3 mph 23.0 mph N/A   Clear
9:56 AM 73.0 °F 64.0 °F 73% 29.68 in 10.0 mi South 11.5 mph 23.0 mph N/A   Overcast
10:56 AM 77.0 °F 66.0 °F 69% 29.66 in 10.0 mi SSE 17.3 mph 28.8 mph N/A   Mostly Cloudy
11:04 AM 75.2 °F 66.2 °F 73% 29.67 in 10.0 mi South 13.8 mph 26.5 mph N/A   Mostly Cloudy
11:23 AM 75.2 °F 64.4 °F 69% 29.67 in 10.0 mi South 19.6 mph 32.2 mph N/A   Overcast
11:56 AM 75.9 °F 64.0 °F 67% 29.67 in 10.0 mi SSE 17.3 mph 27.6 mph N/A   Mostly Cloudy
12:04 PM 75.2 °F 64.4 °F 69% 29.68 in 10.0 mi South 19.6 mph 28.8 mph N/A   Mostly Cloudy
12:56 PM 75.9 °F 64.9 °F 69% 29.65 in 10.0 mi South 15.0 mph 24.2 mph N/A   Overcast
1:56 PM 77.0 °F 64.9 °F 66% 29.63 in 10.0 mi South 16.1 mph 21.9 mph N/A   Overcast
2:30 PM 69.8 °F 64.4 °F 83% 29.66 in 1.8 mi SW 21.9 mph 33.4 mph 0.14 in Rain Rain
2:41 PM 66.2 °F 64.4 °F 94% 29.65 in 4.0 mi South 11.5 mph 20.7 mph 0.19 in Rain Light Rain
2:56 PM 68.0 °F 64.9 °F 90% 29.64 in 10.0 mi South 6.9 mph - 0.20 in   Overcast
3:56 PM 72.0 °F 66.0 °F 81% 29.62 in 10.0 mi South 5.8 mph - N/A   Scattered Clouds
4:56 PM 73.9 °F 64.9 °F 73% 29.60 in 10.0 mi South 12.7 mph - N/A   Mostly Cloudy
5:56 PM 77.0 °F 66.0 °F 69% 29.60 in 10.0 mi South 10.4 mph - N/A   Scattered Clouds
6:56 PM 77.0 °F 62.1 °F 60% 29.57 in 10.0 mi SSE 11.5 mph 20.7 mph N/A   Mostly Cloudy
7:56 PM 73.9 °F 63.0 °F 68% 29.54 in 10.0 mi ESE 10.4 mph - N/A   Partly Cloudy
8:56 PM 70.0 °F 64.9 °F 84% 29.57 in 10.0 mi South 17.3 mph 27.6 mph 0.00 in   Overcast
9:56 PM 68.0 °F 63.0 °F 84% 29.59 in 10.0 mi SSE 12.7 mph - N/A   Mostly Cloudy
10:06 PM 66.2 °F 62.6 °F 88% 29.61 in 10.0 mi SSE 12.7 mph - N/A   Scattered Clouds
10:23 PM 66.2 °F 62.6 °F 88% 29.61 in 10.0 mi SSE 12.7 mph 20.7 mph N/A   Mostly Cloudy
10:56 PM 66.0 °F 62.1 °F 87% 29.60 in 10.0 mi SSE 12.7 mph - N/A   Mostly Cloudy
11:11 PM 66.2 °F 60.8 °F 83% 29.62 in 10.0 mi SSE 13.8 mph - N/A   Scattered Clouds
11:56 PM 64.0 °F 61.0 °F 90% 29.61 in 10.0 mi South 11.5 mph - N/A   Clear